A/2019 G2

Japanese version
Home page
Updated on July 8, 2020

---------------------------------------------------------------------

* Profile

Discovery Date April 2, 2019
Magnitude 21.3 mag
Discoverer Pan-STARRS 1 telescope (Haleakala)

* Pictures

* Orbital Elements

Epoch 2019 Dec. 23.0 TT = JDT 2458840.5
T 2019 Dec. 10.06160 TT                                 Rudenko
q   2.2913585            (2000.0)            P               Q
z  +0.0013953      Peri.   82.65263     -0.55012818     +0.81812717
 +/-0.0000021      Node   208.14429     +0.55475943     +0.50788587
e   0.9968029      Incl.  159.21160     +0.62418023     +0.26966624
H   16.5
From 85 observations 2019 Apr. 2-2020 Feb. 21, mean residual 0".5.

* Magnitudes Graph

        H = 16.0  G = 0.15

---------------------------------------------------------------------

The orbital elements are published on M.P.E.C. 2020-F67.
The magnitudes graphs are made with Comet for Windows.

---------------------------------------------------------------------

Copyright(C) Seiichi Yoshida (comet@aerith.net). All rights reserved.